323P/SOHO (2008)

Japanese version
Home page
Updated on March 19, 2021

---------------------------------------------------------------------

* Profile

Designation 323P/2008 K10

* Orbital Elements

Epoch 2008 May 14.0 TT = JDT 2454600.5
T 2008 May 31.32615 TT                                  MPCW
q   0.0479308            (2000.0)            P               Q
n   0.23368002     Peri.  353.10953     +0.73481233     +0.67533804
a   2.6104878      Node   324.14740     -0.61705498     +0.62704024
e   0.9816392      Incl.    6.17515     -0.28159190     +0.38825129
P   4.22
From 47 observations 1999 Dec. 12-2012 Aug. 20.

* Magnitudes Graph

        m1 = 24.0 + 5 log d + 13.0 log r

---------------------------------------------------------------------

The orbital elements are published on M.P.E.C. 2015-K01.
The magnitudes graphs are made with Comet for Windows.

---------------------------------------------------------------------

Copyright(C) Seiichi Yoshida (comet@aerith.net). All rights reserved.